[[{"header":{"parameterUnit":"m.s-1","parameterCategory":1,"la1":30.2991,"la2":30.254,"lo1":-89.0895,"lo2":-89.0444,"dy":0.0017,"dx":0.0017,"nx":28,"ny":28,"refTime":"2025-01-06T03:00:00:Z","depth":0,"parameterNumber":2,"parameterNumberName":"U-component_of_WINDS"},"data":[0,0,0,0,0,0,0,0,0,0,0,0,0,0,0,0,0,0,0,0,0,0,0,0,0,0,0,0,0,0,0,0,0,0,0,0,0,0,0,0,0,0,0,0,0,0,0,0,0,0,0,0,0,0,0,0,0,0,1.7091,1.7091,0,1.7072,1.7072,1.7072,1.7058,1.7058,1.7058,1.7058,1.7036,1.7035,1.7035,0,0,0,0,0,0,0,0,0,0,0,0,0,1.7112,1.7112,1.7091,1.7091,1.709,1.7072,1.7072,1.7072,1.7058,1.7058,1.7058,1.7057,1.7036,1.7035,1.7035,0,0,0,0,0,0,0,0,0,0,0,0,0,1.7099,1.7112,1.7091,1.7081,1.708,1.7072,1.7072,1.7072,1.7058,1.7058,1.7058,1.7057,1.7036,1.7035,1.7035,1.7034,0,0,1.7033,1.7032,0,0,0,0,0,0,0,0,1.71,1.7098,1.7083,1.7082,1.7081,1.7067,1.7072,1.7059,1.7058,1.7066,1.7058,1.7057,1.7046,1.7045,1.7041,1.7033,1.7032,1.7032,1.7032,1.7032,1.7032,0,0,0,0,0,0,0,1.7101,1.7099,1.7083,1.7083,1.7081,1.7077,1.7075,1.7069,1.7057,1.7066,1.7065,1.7063,1.7046,1.7042,1.7041,1.7032,1.7033,1.7032,1.7031,1.7031,1.7022,1.7022,0,0,0,0,0,0,1.7104,1.71,1.7084,1.7083,1.709,1.7077,1.7075,1.7072,1.7057,1.7055,1.7063,1.7062,1.7043,1.7042,1.704,1.7038,1.7032,1.7031,1.7031,1.7022,1.7022,1.7022,0,0,0,0,0,0,1.7104,1.7102,1.7085,1.7091,1.7089,1.7077,1.7074,1.7071,1.7068,1.7055,1.7053,1.7062,1.7043,1.7041,1.7036,1.7037,1.7031,1.703,1.7022,1.7022,1.7022,1.7035,0,0,0,0,0,0,1.7105,1.7103,1.7102,1.7091,1.7088,1.7081,1.7074,1.7071,1.7067,1.7066,1.7054,1.7051,1.7043,1.7037,1.7035,1.7036,1.703,1.7021,1.7022,1.7022,1.7034,1.7035,1.7036,0,0,0,0,0,1.7106,1.7106,1.7103,1.7101,1.7088,1.7081,1.708,1.7071,1.7067,1.7067,1.7059,1.7052,1.7038,1.7037,1.7034,1.7035,1.7021,1.7022,1.7022,1.7034,1.7035,1.7036,0,0,0,0,0,0,1.7116,1.7104,1.71,1.7097,1.7091,1.7079,1.7078,1.7073,1.7066,1.7065,1.7054,1.7051,1.7047,1.7041,1.704,1.7034,1.7029,1.7029,1.7038,1.7039,1.7041,1.7042,1.7029,0,0,0,0,0,1.7119,1.7115,1.7104,1.7103,1.71,1.709,1.7086,1.708,1.7073,1.7069,1.7061,1.7053,1.7047,1.7043,1.7037,1.7034,1.703,1.7033,1.7034,1.7035,1.7035,1.7033,1.7034,1.7023,1.7023,1.7023,0,0,1.7123,1.7116,1.7114,1.7105,1.7099,1.7095,1.7087,1.7083,1.708,1.7068,1.7063,1.7057,1.7048,1.7044,1.7041,1.7038,1.7038,1.7036,1.7037,1.7036,1.7034,1.7035,1.7036,1.7024,1.7024,1.7024,0,0,1.7128,1.7123,1.7121,1.7116,1.7107,1.7101,1.7101,1.709,1.7086,1.7081,1.7073,1.7068,1.7058,1.7052,1.7047,1.7052,1.7045,1.705,1.7056,1.7054,1.7055,1.7056,1.7057,1.7058,1.705,1.705,1.705,0,1.7134,1.7128,1.712,1.7117,1.7113,1.7104,1.7102,1.7097,1.7087,1.7084,1.7081,1.7069,1.7062,1.7056,1.7058,1.7054,1.7053,1.7051,1.7056,1.7056,1.7057,1.7058,1.7059,1.7051,1.7051,1.7051,1.7051,0,1.7136,1.7132,1.7132,1.7123,1.7119,1.7117,1.7108,1.7105,1.71,1.7093,1.7089,1.708,1.7072,1.7071,1.7065,1.7064,1.7063,1.7058,1.7052,1.7059,1.7059,1.706,1.7052,1.7051,1.7051,1.7051,0,0,1.7146,1.7135,1.7135,1.7131,1.7122,1.7118,1.7115,1.7109,1.7106,1.71,1.7097,1.7089,1.7085,1.708,1.7073,1.7072,1.7076,1.7067,1.7067,1.7069,1.7075,1.7079,1.7079,1.7072,1.7072,1.7072,1.7076,0,1.715,1.7145,1.7138,1.7135,1.7131,1.7123,1.7121,1.7115,1.7109,1.7105,1.7098,1.7093,1.7088,1.7085,1.7084,1.7076,1.7077,1.7076,1.7068,1.7068,1.707,1.708,1.7083,1.7087,1.7076,1.7076,1.7076,0,1.7153,1.7148,1.7145,1.7137,1.7135,1.7133,1.7127,1.7123,1.7116,1.7112,1.7107,1.7101,1.7097,1.7093,1.7087,1.7086,1.7083,1.7079,1.7079,1.7077,1.7072,1.7078,1.7088,1.7088,1.7077,1.7077,1.7077,0,1.7161,1.7153,1.7151,1.7148,1.7138,1.7137,1.7133,1.7126,1.7123,1.7117,1.7115,1.7108,1.7105,1.71,1.7092,1.7089,1.7087,1.7082,1.7083,1.7083,1.7082,1.7082,1.7091,1.7081,1.7081,1.7081,1.7081,0,1.7165,1.7163,1.7154,1.7152,1.715,1.7143,1.714,1.7136,1.713,1.7126,1.7119,1.7116,1.7106,1.7102,1.7096,1.7092,1.709,1.7086,1.7085,1.7087,1.7087,1.7084,1.7083,1.7081,1.7081,1.7081,1.7081,0,1.7172,1.7166,1.7163,1.7155,1.7153,1.7152,1.7144,1.7142,1.7137,1.7133,1.7132,1.7123,1.7118,1.711,1.7101,1.7097,1.7094,1.7092,1.7097,1.7096,1.7097,1.7097,1.7104,1.7104,1.7095,1.7095,1.7095,0,1.7175,1.7174,1.7166,1.7164,1.7161,1.7157,1.7154,1.7147,1.7144,1.7136,1.7135,1.713,1.7125,1.7117,1.7109,1.7103,1.71,1.7103,1.7099,1.7101,1.7099,1.7099,1.7099,1.7103,1.7103,1.7104,1.7104,0,1.7181,1.7178,1.7174,1.717,1.7167,1.7163,1.7158,1.7156,1.7148,1.7145,1.714,1.7137,1.7129,1.7124,1.7117,1.7112,1.7106,1.7105,1.7105,1.7107,1.711,1.7108,1.7099,1.7105,1.7105,1.7105,1.7104,1.7104,1.7186,1.7184,1.7179,1.7175,1.7171,1.7167,1.7165,1.716,1.7156,1.715,1.7146,1.7142,1.7135,1.7126,1.7121,1.7117,1.7115,1.7115,1.7114,1.7114,1.7115,1.7111,1.7116,1.7116,1.7116,1.7116,1.7116,0,1.7191,1.7187,1.7184,1.7178,1.7175,1.7172,1.7167,1.7164,1.7161,1.7155,1.7151,1.7146,1.7141,1.7134,1.7128,1.7126,1.7123,1.7125,1.7124,1.7123,1.7118,1.7118,1.7127,1.7127,1.7127,1.7127,1.7127,1.7127,1.7193,1.719,1.7187,1.7183,1.7179,1.7175,1.7173,1.7169,1.7165,1.716,1.7156,1.7152,1.7145,1.7139,1.7135,1.7133,1.713,1.7133,1.713,1.7124,1.7123,1.7122,1.7123,1.7132,1.7132,1.7135,1.7135,1.7135]},{"header":{"parameterUnit":"m.s-1","parameterCategory":1,"la1":30.2991,"la2":30.254,"lo1":-89.0895,"lo2":-89.0444,"dy":0.0017,"dx":0.0017,"nx":28,"ny":28,"refTime":"2025-01-06T03:00:00:Z","depth":0,"parameterNumber":3,"parameterNumberName":"V-component_of_WINDS"},"data":[0,0,0,0,0,0,0,0,0,0,0,0,0,0,0,0,0,0,0,0,0,0,0,0,0,0,0,0,0,0,0,0,0,0,0,0,0,0,0,0,0,0,0,0,0,0,0,0,0,0,0,0,0,0,0,0,0,0,-7.6817,-7.682,0,-7.7019,-7.7021,-7.7023,-7.693,-7.6925,-7.692,-7.6915,-7.7116,-7.7126,-7.7136,0,0,0,0,0,0,0,0,0,0,0,0,0,-7.6347,-7.6356,-7.6817,-7.682,-7.6822,-7.7018,-7.7021,-7.7024,-7.6931,-7.6924,-7.6918,-7.6913,-7.7113,-7.7124,-7.7137,0,0,0,0,0,0,0,0,0,0,0,0,0,-7.655,-7.6359,-7.6817,-7.68,-7.68,-7.7018,-7.7021,-7.7025,-7.6932,-7.6924,-7.6917,-7.691,-7.7109,-7.7123,-7.7138,-7.7383,0,0,-7.7184,-7.7191,0,0,0,0,0,0,0,0,-7.6539,-7.6568,-7.68,-7.6801,-7.6802,-7.6941,-7.6929,-7.7145,-7.6934,-7.6882,-7.6915,-7.6906,-7.7064,-7.7082,-7.7136,-7.7393,-7.7401,-7.7186,-7.7195,-7.7201,-7.7206,0,0,0,0,0,0,0,-7.6525,-7.6558,-7.6897,-7.6803,-7.6805,-7.678,-7.6801,-7.697,-7.7013,-7.6886,-7.6879,-7.6905,-7.7063,-7.7122,-7.714,-7.7404,-7.7185,-7.7199,-7.7208,-7.7214,-7.7872,-7.788,0,0,0,0,0,0,-7.6512,-7.6547,-7.689,-7.6903,-7.6649,-7.6795,-7.6818,-7.6904,-7.7011,-7.702,-7.6911,-7.69,-7.71,-7.7123,-7.7147,-7.7442,-7.7201,-7.7215,-7.7224,-7.7864,-7.7874,-7.7883,0,0,0,0,0,0,-7.6502,-7.6543,-7.6882,-7.6724,-7.6765,-7.6811,-7.6909,-7.6912,-7.6971,-7.703,-7.7036,-7.6964,-7.7095,-7.7126,-7.7326,-7.7447,-7.7222,-7.7236,-7.7854,-7.7867,-7.7878,-7.8032,0,0,0,0,0,0,-7.6489,-7.6541,-7.6635,-7.6726,-7.6774,-7.706,-7.6917,-7.6922,-7.6998,-7.6985,-7.7081,-7.709,-7.7091,-7.7304,-7.7341,-7.7464,-7.7248,-7.7843,-7.7859,-7.7874,-7.8017,-7.8049,-7.8076,0,0,0,0,0,-7.6473,-7.6669,-7.6641,-7.6682,-7.6893,-7.7067,-7.7094,-7.7093,-7.7008,-7.7103,-7.7141,-7.7087,-7.7428,-7.7325,-7.7366,-7.7495,-7.7835,-7.7855,-7.7873,-7.8003,-7.8043,-7.8076,0,0,0,0,0,0,-7.6589,-7.6681,-7.665,-7.6882,-7.6968,-7.7051,-7.7171,-7.7134,-7.7244,-7.7227,-7.722,-7.7242,-7.745,-7.7492,-7.7376,-7.7738,-7.7618,-7.7646,-7.7703,-7.7741,-7.777,-7.7756,-7.726,0,0,0,0,0,-7.6643,-7.6777,-7.6849,-7.7047,-7.7092,-7.7124,-7.72,-7.7192,-7.7279,-7.7314,-7.7366,-7.7452,-7.7578,-7.7662,-7.7781,-7.8022,-7.8041,-7.8131,-7.8161,-7.8185,-7.821,-7.834,-7.8381,-7.7945,-7.7945,-7.7945,0,0,-7.6753,-7.682,-7.6905,-7.7072,-7.7138,-7.7276,-7.7155,-7.7307,-7.7409,-7.7337,-7.753,-7.7571,-7.7666,-7.7888,-7.7988,-7.7929,-7.8334,-7.8209,-7.8228,-7.824,-7.8364,-7.8405,-7.8442,-7.7958,-7.7956,-7.7954,0,0,-7.7025,-7.709,-7.7262,-7.7331,-7.7431,-7.7452,-7.7493,-7.7583,-7.7608,-7.7802,-7.775,-7.7871,-7.8089,-7.8159,-7.8223,-7.8523,-7.8477,-7.8561,-7.8717,-7.8845,-7.8879,-7.891,-7.9017,-7.9056,-7.8585,-7.8586,-7.8586,0,-7.715,-7.7358,-7.7355,-7.7512,-7.7587,-7.7529,-7.7703,-7.7769,-7.7903,-7.7956,-7.7889,-7.8162,-7.8221,-7.8459,-7.8532,-7.8586,-7.8632,-7.8551,-7.8875,-7.8905,-7.8934,-7.9036,-7.9076,-7.8595,-7.8594,-7.8593,-7.8592,0,-7.7506,-7.7652,-7.7778,-7.7912,-7.8001,-7.8166,-7.8186,-7.8276,-7.8261,-7.8288,-7.8485,-7.8555,-7.8688,-7.8744,-7.8729,-7.898,-7.8941,-7.8875,-7.8754,-7.8985,-7.9081,-7.912,-7.8609,-7.8606,-7.8603,-7.8601,0,0,-7.7858,-7.7989,-7.8036,-7.8096,-7.8203,-7.8315,-7.8476,-7.8608,-7.8686,-7.878,-7.8915,-7.9101,-7.9041,-7.9114,-7.9106,-7.9218,-7.9452,-7.9138,-7.914,-7.9195,-7.9733,-7.9783,-7.9829,-7.9422,-7.9429,-7.9435,-7.9726,0,-7.8139,-7.8425,-7.8426,-7.8688,-7.8823,-7.877,-7.891,-7.8991,-7.902,-7.9137,-7.9168,-7.9301,-7.9211,-7.9255,-7.9364,-7.9401,-7.956,-7.938,-7.9547,-7.9553,-7.9526,-7.9879,-7.9932,-8.0203,-7.9763,-7.9769,-7.9774,0,-7.8506,-7.8614,-7.8891,-7.8979,-7.9036,-7.9162,-7.9284,-7.9396,-7.9486,-7.9499,-7.9582,-7.9557,-7.972,-7.9594,-7.9818,-7.9696,-7.9764,-7.9792,-7.9803,-7.9819,-7.9678,-7.9905,-8.0289,-8.033,-7.9833,-7.9828,-7.9824,0,-7.8736,-7.8951,-7.9144,-7.9197,-7.9305,-7.9396,-7.9444,-7.9527,-7.9606,-7.9711,-7.9763,-7.9885,-7.9952,-8.0046,-8.0055,-7.9963,-8.0281,-8.0156,-8.0296,-8.0297,-8.0367,-8.0362,-8.0767,-8.0409,-8.0409,-8.0408,-8.0407,0,-7.9051,-7.9222,-7.925,-7.9369,-7.9559,-7.9558,-7.9746,-7.9786,-7.986,-7.9985,-7.9946,-8.0063,-8.0067,-8.0188,-8.0195,-8.038,-8.041,-8.0425,-8.0425,-8.0429,-8.0428,-8.0474,-8.0456,-8.0419,-8.0416,-8.0414,-8.0412,0,-7.934,-7.9366,-7.9573,-7.9659,-7.9685,-7.9821,-7.9894,-8.0007,-8.0032,-8.0191,-8.0228,-8.0268,-8.0407,-8.0425,-8.0587,-8.0592,-8.0815,-8.0795,-8.0786,-8.0783,-8.0923,-8.091,-8.1373,-8.1434,-8.1036,-8.1039,-8.1042,0,-7.954,-7.9671,-7.9771,-7.9853,-7.9908,-8.004,-8.0121,-8.0125,-8.0211,-8.0324,-8.0423,-8.0559,-8.0668,-8.0893,-8.0935,-8.1059,-8.1042,-8.1196,-8.106,-8.1061,-8.1045,-8.1038,-8.1051,-8.1222,-8.1226,-8.123,-8.1233,0,-7.9892,-7.9898,-8.0018,-8.0143,-8.0242,-8.034,-8.0432,-8.0501,-8.0516,-8.0615,-8.0758,-8.0843,-8.101,-8.1145,-8.1268,-8.1315,-8.1278,-8.1275,-8.1314,-8.1321,-8.1311,-8.1319,-8.0859,-8.1265,-8.1262,-8.1259,-8.1258,-8.1256,-8.0143,-8.0257,-8.0347,-8.0481,-8.0552,-8.0639,-8.075,-8.079,-8.091,-8.1048,-8.1042,-8.12,-8.1285,-8.1446,-8.1503,-8.1626,-8.1575,-8.1632,-8.1646,-8.166,-8.1675,-8.1291,-8.1648,-8.1647,-8.1646,-8.1645,-8.1645,0,-8.0494,-8.0549,-8.0673,-8.0804,-8.0911,-8.0867,-8.0966,-8.1058,-8.1198,-8.1282,-8.1391,-8.1555,-8.1686,-8.174,-8.1868,-8.1956,-8.1941,-8.1989,-8.1983,-8.1995,-8.1713,-8.1666,-8.1999,-8.1999,-8.1999,-8.1999,-8.1998,-8.1998,-8.0689,-8.088,-8.0897,-8.1123,-8.1175,-8.1332,-8.1393,-8.1473,-8.154,-8.1726,-8.1836,-8.187,-8.1942,-8.2075,-8.2193,-8.2205,-8.2254,-8.2311,-8.2315,-8.205,-8.2015,-8.1981,-8.1937,-8.2321,-8.2321,-8.2587,-8.259,-8.2592]}]]